Weather History for OTBD - September, 2010

Change the Weather History Date:

Friday, September 10, 2010

  Actual Average Record
Temperature  
Mean Temperature 94 °F -  
Max Temperature 100 °F 99 °F 109 °F (2008)
Min Temperature 88 °F 78 °F 82 °F (1997)
Cooling Degree Days 29    
Growing Degree Days 44 (Base 50)    
Moisture  
Dew Point 82 °F    
Average Humidity 67    
Maximum Humidity 84    
Minimum Humidity 42    
Precipitation  
Precipitation 0.00 in 0.00 in - ()
Sea Level Pressure  
Sea Level Pressure 29.56 in    
Wind  
Wind Speed 5 mph ()    
Max Wind Speed 10 mph    
Max Gust Speed -    
Visibility 4.8 miles    
Events      
Averages and records for this station are not official NWS values.
T = Trace of Precipitation, MM = Missing Value Source: Averaged Metar Reports

Daily Weather History Graph

Daily Weather History Graph

Search for Another Location

Airport or City:

Trip Planner

Search our weather history database for the weather conditions in past years. The results will help you decide how hot, cold, wet, or windy it might be!

Date:

Astronomy

Sep. 10, 2010 Rise Set
Actual Time 5:17 AM AST 5:43 PM AST
Civil Twilight 4:54 AM AST 6:06 PM AST
Nautical Twilight 4:27 AM AST 6:33 PM AST
Astronomical Twilight 4:00 AM AST 7:00 PM AST
Moon 7:11 AM AST (9/10) 6:54 PM AST (9/10)
Length of Visible Light 13h 11m
Length of Day
12h 25m
Waxing Crescent, 6% of the Moon is Illuminated
Sep 10
Waxing Crescent
Sep 15
First Quarter
Sep 23
Full
Oct 1
Last Quarter
Oct 7
New

Hourly Weather History & Observations

Time (AST) Temp. Heat Index Dew Point Humidity Pressure Visibility Wind Dir Wind Speed Gust Speed Precip Events Conditions
12:00 AM 91.4 °F 102.5 °F 75.2 °F 59% 29.56 in - East 3.5 mph - N/A   Clear
1:00 AM 91.4 °F 107.2 °F 78.8 °F 66% 29.56 in - North 4.6 mph - N/A   Clear
2:00 AM 91.4 °F 114.3 °F 82.4 °F 75% 29.56 in - NNE 4.6 mph - N/A   Clear
3:00 AM 91 °F - 83 °F 71% 29.57 in 6 mi NE 3.5 mph - -   Partly Cloudy
3:00 AM 91.4 °F 114.3 °F 82.4 °F 75% 29.56 in - NE 3.5 mph - N/A   Clear
4:00 AM 89.6 °F 115.0 °F 84.2 °F 84% 29.53 in 5.6 mi Calm Calm - N/A   Unknown
5:00 AM 89.6 °F 111.1 °F 82.4 °F 79% 29.56 in 5.6 mi Calm Calm - N/A   Unknown
6:00 AM 89.6 °F 111.1 °F 82.4 °F 79% 29.56 in - North - - N/A   Unknown
7:00 AM 91.4 °F 114.3 °F 82.4 °F 75% 29.56 in 3.7 mi NW 4.6 mph - N/A   Unknown
8:00 AM 93.2 °F 117.1 °F 82.4 °F 71% 29.59 in 3.7 mi North 5.8 mph - N/A   Partly Cloudy
9:00 AM 93 °F - 82 °F 64% 29.62 in 4 mi North 6.9 mph - -   Haze
9:00 AM 93.2 °F 117.1 °F 82.4 °F 71% 29.62 in 4.3 mi North 6.9 mph - N/A   Partly Cloudy
10:00 AM 95.0 °F 119.6 °F 82.4 °F 67% - 4.3 mi North 8.1 mph - N/A   Partly Cloudy
11:00 AM 96.8 °F 121.7 °F 82.4 °F 63% 29.59 in 4.3 mi NE 6.9 mph - N/A   Partly Cloudy
12:00 PM 98.6 °F 120.3 °F 80.6 °F 56% 29.56 in 4.3 mi NE 8.1 mph - N/A   Unknown
1:00 PM 98.6 °F 120.3 °F 80.6 °F 56% 29.56 in 4.3 mi NNE 8.1 mph - N/A   Unknown
2:00 PM 100.4 °F 122.7 °F 80.6 °F 53% 29.53 in 5.0 mi North 8.1 mph - N/A   Unknown
3:00 PM 99 °F - 78 °F 42% 29.53 in 5 mi North 9.2 mph - -   Haze
3:00 PM 98.6 °F 114.4 °F 77.0 °F 50% 29.50 in 5.0 mi North 9.2 mph - N/A   Unknown
4:00 PM 96.8 °F 121.7 °F 82.4 °F 63% 29.53 in 5.0 mi NNE 9.2 mph - N/A   Unknown
6:00 PM 95.0 °F 115.8 °F 80.6 °F 63% 29.50 in 4.3 mi NNE 6.9 mph - N/A   Unknown
7:00 PM 95.0 °F 119.6 °F 82.4 °F 67% 29.53 in 5.0 mi North 10.4 mph - N/A   Unknown
8:00 PM 93.2 °F 117.1 °F 82.4 °F 71% 29.56 in 5.0 mi North 10.4 mph - N/A   Unknown
9:00 PM 93 °F - 83 °F 67% 29.57 in 6 mi North 8.1 mph - -  
9:00 PM 93.2 °F 120.9 °F 84.2 °F 75% 29.56 in - North 8.1 mph - N/A   Clear
10:00 PM 93.2 °F 120.9 °F 84.2 °F 75% 29.56 in - North 8.1 mph - N/A   Clear
11:00 PM 91.4 °F 122.4 °F 86.0 °F 84% 29.56 in - NNW 6.9 mph - N/A   Clear